Temp
23 21 21 20 20 18 18 19 18 17 17 18 18 19 19 19 19 18 16 15 15 14 15 16 15 15 16 16 15 14 14 15 14 15 15 15 13 13 13 12 12 12 12
23 22 21 21 20 19 20 20 20 19 19 19 19 20 19 19 19 17 15 15 15 15 15 16 15 15 16 15 14 14 15 15 14 15 15 16 15 13 12 12 12 12 11
25 24 22 22 21 21 20 21 21 21 20 20 20 19 19 19 19 18 16 15 15 15 15 16 15 15 15 15 14 14 14 15 13 12 13 14 14 14 14 13 12 11 11
26 25 24 23 22 22 22 21 21 21 21 20 20 19 20 20 20 19 16 15 15 14 14 15 15 15 15 14 14 14 14 14 14 12 11 11 11 13 13 14 13 11 10
27 27 25 24 23 22 22 21 21 22 21 20 20 20 20 20 20 19 16 15 14 14 14 14 14 14 14 14 14 14 13 12 12 11 11 10 11 11 11 12 13 13 12
28 28 27 25 24 23 22 21 21 21 21 20 20 20 19 20 21 19 17 16 15 13 12 12 13 13 13 14 13 13 12 11 10 10 9 10 11 12 12 12 12 12 11
29 28 28 27 26 24 22 22 21 22 21 21 20 19 19 20 20 18 17 16 14 12 12 12 13 13 13 13 13 11 10 9 8 8 8 9 10 10 10 10 10 10 10
29 29 29 28 27 26 24 22 22 22 22 20 20 19 19 19 18 17 16 15 14 13 12 12 12 12 12 12 11 9 8 7 7 7 7 8 10 10 9 9 9 9 9
29 30 29 28 27 26 25 23 22 22 22 21 20 19 19 18 17 16 15 14 14 13 12 12 11 11 11 11 8 8 7 7 6 6 6 7 8 9 9 8 8 8 8
28 29 29 29 28 27 26 24 22 23 22 21 19 18 18 16 15 14 14 13 12 11 11 11 10 9 10 8 7 7 6 5 5 5 6 8 8 8 8 8 8 8 8
28 28 28 28 28 27 26 24 23 22 23 22 20 19 18 16 15 14 13 12 11 10 10 9 8 8 8 6 5 4 4 5 5 4 7 7 8 7 8 7 7 7 7
29 28 27 26 26 25 25 24 23 22 22 22 21 18 17 14 14 13 12 11 10 10 9 8 7 7 6 5 4 5 5 5 4 6 7 8 7 7 7 7 7 6 6
29 28 27 26 25 24 24 23 22 22 22 21 18 14 13 12 11 10 10 9 9 9 8 8 6 5 5 5 5 5 5 5 6 7 7 7 7 7 7 7 6 6 6
29 29 28 27 25 24 23 22 20 18 16 13 11 11 10 10 9 8 8 7 7 6 6 5 5 5 5 5 5 5 5 6 7 7 7 7 7 7 7 6 6 6 6
28 28 28 26 25 23 20 15 13 11 11 10 9 8 7 7 6 6 6 6 6 5 5 5 5 5 5 5 5 6 6 6 7 7 7 7 7 6 6 5 5 5 5
26 26 26 25 23 20 18 13 11 10 9 8 8 7 6 5 5 5 5 5 5 5 5 5 5 5 4 5 5 4 5 6 6 7 7 7 7 6 6 5 4 3 3
22 23 23 22 20 18 15 13 10 9 8 7 7 7 7 6 5 5 5 5 5 5 5 5 4 5 5 6 5 4 4 4 5 5 6 6 6 6 6 6 5 4 2
20 20 20 18 17 16 14 12 11 10 9 9 8 7 6 5 5 5 5 5 5 5 6 6 7 7 7 6 4 4 3 4 4 5 5 5 5 5 5 5 4 4 2
19 18 17 17 16 15 14 14 13 12 10 9 8 7 7 5 5 5 4 5 5 7 7 7 6 6 6 4 3 2 2 2 3 3 3 3 3 3 3 2 1 2 2
17 17 16 16 15 14 13 13 12 11 9 8 7 6 6 6 6 6 7 7 7 7 6 6 5 5 4 2 1 0 -0 -0 0 0 1 0 0 0 0 -0 -0 0 0
16 16 15 15 14 13 12 12 11 10 8 8 7 7 7 8 8 7 7 6 6 5 4 3 3 3 2 1 -1 -2 -2 -2 -3 -3 -2 -2 -2 -2 -2 -2 -2 -2 -2
15 15 15 14 13 12 12 12 11 9 8 8 7 7 7 6 6 6 6 5 5 4 4 2 2 2 1 0 -1 -3 -4 -4 -4 -4 -4 -3 -4 -5 -4 -4 -4 -3 -3
15 14 14 13 12 12 12 11 9 8 7 7 7 6 5 5 5 5 5 5 4 3 3 2 1 1 0 -0 -2 -4 -5 -5 -5 -5 -5 -5 -5 -5 -4 -2 -1 -2 -3
14 13 13 12 11 11 10 9 8 7 7 6 5 5 5 4 4 4 3 3 2 1 1 1 0 -1 -2 -2 -4 -6 -6 -6 -6 -6 -6 -6 -5 -3 -3 -2 -1 -2 -2
13 12 11 10 9 8 7 7 6 6 5 5 4 4 3 3 2 2 1 -0 -2 -3 -2 -2 -3 -4 -4 -5 -8 -8 -8 -8 -8 -8 -7 -4 -4 -4 -4 -3 -2 -1 -1
11 10 9 8 7 6 5 5 5 5 4 3 3 1 1 1 2 1 -0 -3 -3 -4 -5 -6 -7 -7 -8 -9 -10 -9 -9 -9 -8 -7 -5 -5 -6 -6 -6 -5 -4 -4 -2
Height
772 778 782 789 794 800 803 805 809 813 816 817 820 822 825 828 830 833 836 839 841 843 846 848 850 852 853 855 857 859 860 861 863 864 863 862 863 864 864 864 865 865 865
768 775 778 784 790 794 796 799 803 807 811 813 816 819 821 824 826 830 833 835 838 839 842 843 846 848 850 853 855 857 857 859 862 861 861 857 859 860 861 861 862 862 862
755 765 774 777 783 787 792 795 798 802 806 808 811 816 820 821 823 825 829 831 834 836 839 840 842 845 848 850 853 853 854 856 860 861 861 859 856 856 853 854 858 860 860
751 757 765 771 776 780 786 791 794 796 799 804 807 812 813 814 816 820 825 829 831 833 835 837 839 841 843 846 849 851 851 853 854 858 859 858 860 857 852 850 852 853 855
738 746 755 762 768 775 780 785 789 791 794 800 804 806 809 810 812 815 820 823 826 829 831 835 838 838 839 842 844 847 850 852 854 855 857 859 859 858 857 852 851 850 849
731 737 743 752 760 768 774 779 783 786 789 794 799 801 804 806 806 809 814 818 822 824 826 828 832 836 837 839 842 845 848 850 852 853 856 857 856 853 851 849 849 849 848
722 729 734 741 749 758 765 771 775 778 783 788 791 795 797 800 802 806 809 813 816 816 819 823 827 830 833 836 839 842 846 847 850 851 855 854 854 853 853 851 848 847 845
714 719 724 732 739 747 755 763 767 771 775 781 785 789 792 795 799 803 805 805 809 811 814 817 821 825 829 833 837 839 843 846 848 848 850 851 850 849 850 850 848 845 843
711 712 717 724 731 739 746 753 760 764 769 774 780 784 787 790 794 796 802 804 806 808 810 813 816 819 826 828 831 835 837 841 845 847 847 849 848 846 847 847 845 844 841
712 712 713 718 725 730 738 747 754 757 762 768 775 780 783 787 790 793 796 800 802 805 809 811 811 814 821 825 831 832 833 839 843 844 845 845 844 843 842 843 841 841 838
712 714 716 718 721 727 733 741 748 753 756 762 768 775 779 783 786 789 793 796 798 801 805 811 812 814 818 824 827 830 835 836 837 841 841 841 841 840 838 837 837 835 834
710 712 717 720 723 728 732 738 744 749 752 758 763 770 775 778 782 785 788 791 794 798 801 807 814 819 822 823 824 827 831 832 834 836 836 835 836 835 834 833 832 830 829
708 712 716 719 723 728 732 737 743 747 750 755 759 765 772 777 780 783 786 790 794 798 802 805 809 813 819 823 826 826 828 830 831 832 832 832 831 830 829 828 827 825 822
706 707 712 717 722 728 733 737 744 747 752 755 760 765 771 775 779 783 788 791 794 798 802 808 811 815 819 821 822 824 824 825 826 826 827 827 827 825 824 823 821 819 816
705 706 708 715 723 729 737 745 749 751 754 758 763 768 772 776 780 783 789 792 796 801 805 810 812 814 816 818 819 821 822 822 821 821 821 820 819 818 818 817 816 815 812
709 708 710 715 724 734 739 748 754 757 760 761 767 772 775 779 783 787 791 795 799 803 807 809 812 813 814 816 817 819 819 819 818 816 815 814 812 810 808 806 805 805 804
716 717 718 724 732 738 744 750 755 759 764 769 772 776 779 783 786 790 794 798 800 803 806 809 811 812 812 812 814 815 816 816 814 813 811 808 805 803 801 798 794 793 795
720 723 728 733 738 742 747 753 758 762 766 769 773 778 781 785 789 793 795 798 802 804 806 807 808 809 810 810 811 812 812 812 810 808 805 802 799 797 795 792 788 786 784
723 727 732 737 741 745 748 752 757 762 766 770 775 779 783 787 791 794 796 799 801 802 804 805 807 808 810 808 808 809 809 808 806 803 801 798 794 791 789 785 781 777 773
725 729 733 738 743 747 751 755 759 765 770 775 779 783 786 790 792 794 796 798 800 802 804 805 807 808 809 806 806 806 807 805 803 800 796 793 791 787 784 780 776 770 767
727 731 735 740 745 750 754 758 762 767 772 776 780 784 787 788 791 794 796 798 800 802 804 805 805 807 807 807 804 804 805 804 801 797 792 788 785 781 777 774 770 765 763
729 732 736 742 748 751 755 759 765 770 774 777 781 784 787 790 792 794 796 798 799 801 802 804 805 805 806 805 803 803 803 801 799 794 788 783 778 772 766 762 758 756 755
729 733 738 744 749 753 756 760 766 771 775 778 782 786 789 791 794 795 796 797 799 800 801 803 803 803 803 804 801 800 799 798 794 790 785 778 769 762 755 750 747 746 745
728 734 739 745 751 756 760 765 769 773 777 780 784 788 791 793 795 796 798 798 800 800 800 801 802 802 803 802 801 799 797 794 790 785 778 771 765 758 750 743 739 736 734
729 735 741 748 755 760 766 769 772 774 778 781 785 788 790 793 794 796 798 800 800 800 800 800 802 803 802 802 800 798 795 791 787 782 775 769 763 756 750 742 736 730 727
732 739 747 753 761 765 769 772 775 777 780 783 786 789 791 793 795 796 797 800 800 800 799 798 799 801 801 799 797 794 791 788 784 779 772 767 763 758 752 745 737 730 722
Wind_Speed
13 23 24 24 27 27 26 24 22 19 17 16 17 17 18 19 19 16 15 16 15 15 16 15 15 16 15 14 13 11 10 8 6 6 8 9 8 8 9 9 9 8 9
20 20 22 29 30 30 26 23 21 20 19 18 17 17 18 19 19 15 14 15 15 15 17 17 17 17 15 15 15 14 12 9 7 6 5 4 2 9 12 11 12 9 10
18 20 25 28 31 29 27 24 21 20 19 18 17 16 16 16 18 17 15 16 17 18 20 19 18 18 17 17 17 15 14 11 8 5 3 2 4 9 10 11 10 10 10
19 18 22 27 29 28 26 26 24 23 21 19 18 20 19 20 19 17 15 16 18 19 20 19 19 20 19 18 18 17 15 13 12 8 5 6 6 4 5 6 10 13 12
20 21 23 29 30 29 28 27 27 24 23 23 22 21 20 19 17 18 17 21 16 18 19 18 19 21 22 21 19 17 15 12 9 8 5 7 10 13 10 8 13 14 14
19 20 27 30 30 27 27 28 28 28 25 24 25 24 22 22 21 16 17 17 17 18 25 22 23 21 22 19 18 16 14 11 6 6 8 9 11 11 13 10 15 17 17
19 20 20 23 28 31 30 29 28 29 29 27 27 27 26 23 21 18 20 19 20 22 25 26 24 23 22 19 17 16 15 13 6 6 8 10 13 12 13 15 15 15 17
17 21 21 25 28 30 31 30 29 30 30 29 29 27 26 24 21 22 21 22 22 22 20 28 26 22 20 18 16 15 12 7 8 7 9 14 14 12 13 15 15 10 17
12 19 21 26 28 29 30 31 31 29 29 29 26 25 24 24 20 20 18 18 19 21 24 26 27 23 20 19 20 20 15 13 10 8 9 16 15 13 14 14 15 16 10
4 10 14 22 24 26 27 27 28 28 27 26 24 24 23 21 19 16 18 17 17 18 21 22 21 19 22 20 20 16 12 8 9 11 14 16 16 15 15 16 17 19 20
6 5 8 14 21 21 23 25 26 26 25 25 24 21 20 19 17 17 16 16 17 19 16 14 17 23 22 20 13 9 8 8 12 15 19 17 17 17 17 17 19 20 20
2 6 6 8 11 16 18 19 20 22 22 21 20 20 17 15 16 15 16 15 18 18 21 19 14 12 16 15 13 9 10 14 14 20 19 18 18 19 18 19 21 21 22
6 6 7 9 11 13 15 17 16 17 17 17 13 16 15 16 14 14 13 13 17 18 18 19 22 20 16 13 9 10 12 13 18 17 17 19 19 21 21 21 22 23 25
9 8 8 8 11 12 13 13 10 11 13 15 15 15 13 13 13 12 13 17 18 18 18 18 19 17 11 8 8 10 15 17 15 18 19 20 22 23 24 24 25 25 25
8 8 7 9 10 12 13 15 13 12 13 15 15 16 16 15 17 17 20 19 18 17 19 19 13 9 8 8 8 10 12 14 17 19 21 24 25 26 27 26 27 27 26
3 4 6 8 10 10 16 16 14 14 15 20 19 19 19 18 20 20 19 22 22 19 16 11 5 5 7 9 11 9 12 15 18 22 24 26 28 29 32 36 37 36 30
3 4 7 9 10 12 16 18 18 18 17 18 18 18 19 19 20 20 22 20 19 15 10 5 5 6 8 7 7 11 12 16 20 23 26 27 29 29 29 30 32 31 33
7 7 8 12 13 15 17 19 20 20 20 20 21 19 20 20 18 17 18 15 10 8 5 6 5 3 5 7 9 12 13 17 20 23 25 28 29 30 31 31 31 32 32
10 12 15 16 17 18 20 21 20 20 21 20 20 19 19 18 16 15 11 9 8 6 4 2 2 4 4 5 11 12 13 16 20 22 25 27 30 32 33 32 30 33 36
16 17 18 19 18 18 19 20 20 19 19 19 20 18 16 14 9 9 8 6 5 3 2 1 2 4 6 8 11 13 13 16 19 21 23 26 29 32 34 33 29 31 32
18 18 18 17 18 18 19 20 20 19 20 19 17 14 11 10 9 8 6 5 3 2 1 2 3 5 4 6 12 14 11 15 19 24 26 27 30 34 36 34 29 29 32
18 18 18 18 18 19 19 20 19 19 18 17 14 13 11 9 8 7 5 3 2 2 2 2 4 4 4 6 8 9 14 19 20 24 27 31 35 43 44 41 38 35 35
18 19 19 20 19 18 18 19 18 18 17 15 14 12 10 8 6 5 3 2 1 1 1 3 4 5 5 6 8 15 18 19 21 25 29 36 42 42 39 32 30 29 27
20 20 21 20 19 17 17 18 17 16 15 14 12 10 8 6 4 3 2 0 1 1 2 4 5 6 7 8 10 15 18 19 21 25 30 34 33 31 31 32 29 26 24
21 22 21 20 18 18 16 15 15 15 15 13 11 9 7 4 4 3 2 1 3 1 1 2 4 5 6 8 13 16 18 21 24 28 27 23 25 26 26 27 28 23 20
22 21 21 20 18 17 15 14 13 13 13 12 9 7 6 4 2 1 3 3 3 5 4 5 2 4 6 10 15 17 18 21 20 21 20 20 21 23 25 25 27 30 21
Wind_Direction
179 162 165 168 166 172 181 188 183 188 184 186 185 189 193 196 199 196 199 200 203 203 203 202 197 195 199 200 193 189 185 190 206 237 241 237 220 231 244 242 253 261 264
165 185 178 177 185 186 195 191 193 190 195 195 197 199 200 200 204 193 205 203 202 204 207 202 200 199 203 202 196 194 193 204 210 258 266 282 194 233 241 243 253 255 262
189 180 184 196 193 198 200 206 203 202 201 206 196 197 201 206 207 195 204 209 208 209 207 204 202 201 206 205 203 201 204 206 204 221 292 268 270 325 273 218 242 258 263
194 190 192 194 200 205 205 207 206 207 201 205 198 203 203 203 208 203 211 217 214 211 205 208 208 203 203 207 206 209 211 223 200 208 234 247 269 280 297 287 233 233 237
190 195 193 201 202 203 206 205 209 211 205 202 212 203 213 211 211 201 201 205 213 210 206 210 219 212 204 208 206 210 210 206 202 200 235 246 258 256 263 283 288 279 271
196 203 198 199 201 202 204 208 210 211 211 205 210 214 210 220 219 201 197 202 206 208 212 207 213 217 211 212 209 208 201 199 200 207 222 256 266 281 275 276 283 287 286
204 202 203 195 200 200 203 206 207 212 210 212 212 215 218 219 226 208 214 205 210 207 209 205 210 211 215 216 208 200 194 196 209 208 249 258 262 270 274 278 277 280 284
217 212 204 200 201 203 202 206 209 212 209 211 214 215 218 221 222 225 224 207 211 214 213 209 207 210 215 209 199 179 188 192 209 228 249 265 265 259 265 271 282 286 285
231 216 209 206 201 203 201 203 210 211 211 209 212 216 217 219 217 213 220 212 213 216 215 211 209 210 209 194 181 179 194 223 235 232 247 257 262 263 262 266 271 278 283
215 216 220 210 215 206 206 202 213 214 211 205 208 216 216 214 213 209 214 212 217 217 210 212 194 199 194 181 188 199 209 206 221 250 253 250 257 261 260 265 270 269 272
146 190 213 222 212 212 210 202 211 215 212 210 204 211 217 208 208 211 211 217 211 211 199 199 186 178 173 182 193 189 192 223 242 248 249 256 261 263 264 270 271 271 270
152 155 178 192 204 210 210 207 207 213 211 208 200 200 209 195 205 206 196 196 186 176 177 170 162 174 192 192 175 184 243 249 240 243 251 260 259 260 263 267 269 270 272
214 176 170 175 180 185 190 194 194 201 201 198 160 152 171 180 174 178 182 183 179 173 177 188 185 178 171 173 220 253 243 246 247 255 261 265 265 266 265 268 272 272 274
223 219 184 172 168 167 169 164 134 126 121 121 128 140 153 158 165 165 159 159 163 160 167 173 167 164 183 220 235 247 244 248 260 263 262 268 269 269 269 269 270 273 275
226 224 212 161 153 148 149 125 119 119 128 125 124 126 132 137 137 139 144 147 149 152 156 155 160 179 215 239 250 262 273 266 265 264 267 268 266 266 266 268 272 281 287
274 241 206 155 141 137 125 117 116 115 118 118 119 124 123 123 126 128 131 134 135 140 148 155 179 229 242 246 261 268 270 276 277 277 277 276 275 271 266 262 262 258 257
173 167 142 134 143 138 132 128 127 122 119 120 123 123 125 124 125 127 134 138 143 146 146 180 212 229 243 232 239 277 283 279 277 278 281 282 281 283 281 278 276 264 260
141 125 123 129 134 135 129 130 129 129 130 128 127 129 127 126 131 135 141 143 153 170 203 204 201 250 279 283 286 286 293 284 282 284 286 286 287 287 290 291 288 278 265
137 133 134 132 133 134 135 134 134 133 130 130 131 132 135 134 135 139 146 164 186 193 177 188 238 269 279 319 301 305 302 297 296 295 292 293 295 294 295 305 300 289 281
144 141 139 137 135 134 135 134 133 130 129 132 132 131 130 134 146 159 162 148 154 165 188 225 266 287 285 309 318 317 322 313 309 305 299 298 298 298 300 302 297 290 288
145 141 140 139 136 138 139 133 133 132 133 132 132 133 141 140 134 135 141 149 159 176 209 263 295 300 304 305 332 325 335 323 315 307 305 302 300 301 300 296 293 287 291
147 147 140 137 141 143 142 138 132 135 136 135 133 133 131 132 137 145 146 160 180 238 268 290 294 291 298 315 308 328 325 319 313 305 303 303 302 300 300 293 286 282 282
152 149 143 143 146 147 147 139 136 141 141 137 133 130 130 131 134 143 144 180 262 289 288 289 294 296 306 302 317 333 328 323 314 308 304 302 304 303 300 296 292 287 275
156 152 148 147 144 144 141 142 142 142 139 134 132 130 133 125 112 120 80 81 303 293 288 295 301 309 310 314 329 328 325 322 319 315 310 310 312 321 309 298 290 278 263
156 155 152 146 141 139 138 140 141 142 139 137 137 134 128 131 129 112 81 104 104 78 346 342 319 323 311 329 327 323 318 317 315 314 307 314 326 327 331 326 335 305 285
156 152 148 145 141 137 133 133 138 141 141 136 130 126 127 120 124 167 168 194 229 323 302 287 292 308 302 321 325 321 316 314 314 313 314 325 327 329 330 329 329 337 305